Starlink 4725

operational
NORAD ID: 53700 Int'l Des: 2022-107 Owner: SPXS Country: US Constellation: starlink
LEOCIRCULAR

Über Starlink 4725

Beschreibung wird geladen...

Live-Position

3D-Globus wird geladen...

Nächste Überflüge

Höhenverlauf

Altitude vs Time

uPlot chart will show altitude changes over time

Zweizeiliger Elementsatz

1 53700U 22107A 25351.11834637 .00004696 00000-0 31294-3 0 9993
2 53700 53.2171 254.4245 0001436 85.8998 274.2158 15.08839697182391
Epoch: 17. Dez. 2025 • Age: 22 hours

Aktueller Status

Höhe 544.1 km
Geschwindigkeit 7.59 km/s
Subsatellitenpunkt -15.30°S, 136.45°E
Startdatum 5. Sept. 2022
Alter 3.2 years
Typ internet

Technische Details

Klassifizierung Payload
Masse 305.00 kg
Trockenmasse 290.00 kg
Gesamtmasse 305.00 kg
Länge 0.20 m
Durchmesser 2.80 m
Spannweite 9.00 m
Form Box + pan
Hersteller SPXS
Bus-Typ Starlink
Phasenstatus In Orbit
Besitzer/Staat SPXS/US

Große Konstellationen

Loading constellations...